Wind_Speed
18 15 12 13 22 13 13 15 17 22 27 31 32 31 32 33 34 34 34 33 32 32 32 31 31 31 31 32 32 30 31 31
18 15 17 18 23 12 15 16 19 24 29 34 33 32 32 32 33 33 35 36 35 34 33 31 30 31 30 29 30 29 28 30
19 20 19 22 18 14 16 19 22 26 31 36 35 34 34 34 34 34 35 35 35 34 33 31 29 29 29 30 31 31 30 29
21 22 20 19 15 14 18 21 25 28 32 36 34 33 33 32 32 33 33 34 34 34 32 30 28 30 33 34 33 31 31 27
20 27 21 15 16 14 19 22 26 30 36 35 34 34 34 33 32 32 33 33 33 31 30 29 31 33 34 35 33 31 30 28
21 19 20 16 14 15 18 24 27 31 35 33 33 32 31 31 31 32 32 31 29 28 29 31 33 35 35 35 33 32 31 31
19 23 19 14 14 15 20 25 30 33 32 32 32 31 30 30 32 33 33 31 28 26 29 32 35 36 37 36 34 34 33 32
25 22 15 13 14 17 21 25 31 32 31 31 30 29 30 32 34 34 34 30 27 29 32 34 36 37 36 36 36 36 35 35
22 18 13 12 14 17 20 27 29 29 30 29 28 28 30 32 33 34 31 31 31 33 35 37 36 35 36 36 36 34 32 31
23 16 10 12 15 17 22 25 26 27 27 26 27 28 31 33 33 32 30 31 32 35 37 33 34 37 39 36 32 28 25 23
14 8 10 12 15 19 22 23 24 24 25 25 26 28 31 33 32 28 29 31 34 35 36 35 37 36 36 32 24 17 15 13
5 6 9 13 17 19 21 21 22 23 24 24 26 28 30 31 29 28 29 32 36 38 39 39 35 30 31 30 23 17 17 11
3 6 10 15 17 19 19 21 23 23 23 24 25 28 29 29 27 27 30 35 38 38 37 35 27 25 23 24 22 16 14 13
3 7 12 15 17 17 20 22 23 23 23 23 25 27 29 28 26 28 35 38 36 39 38 27 23 22 21 16 16 16 18 15
4 9 13 15 15 17 20 21 22 22 23 23 26 27 29 27 27 32 37 33 37 37 33 23 23 18 16 20 18 14 17 19
6 10 13 13 15 18 20 21 22 21 22 24 25 29 29 26 29 35 32 34 38 41 31 20 21 22 19 18 19 17 22 20
7 10 12 13 16 19 19 21 22 21 22 24 27 28 28 28 31 31 32 32 38 40 30 27 27 22 18 19 16 17 20 26
7 9 11 14 16 17 19 21 22 21 24 26 28 29 30 31 30 31 30 32 37 41 39 28 32 30 35 38 38 34 32 28
7 8 12 13 16 18 20 21 22 23 25 27 28 30 32 30 28 29 31 30 36 42 45 41 32 32 36 35 36 36 46 43
Wind_Direction
211 211 197 216 239 276 289 301 320 328 330 337 337 334 331 329 325 323 322 317 317 315 312 309 308 307 305 303 301 299 295 290
214 205 207 211 242 276 290 307 320 327 331 334 335 331 329 326 323 323 323 321 317 316 314 313 312 309 306 304 300 296 291 288
209 208 222 228 257 276 294 310 320 328 331 331 332 331 328 327 327 325 319 318 318 318 318 315 311 307 304 303 302 299 296 292
215 226 248 246 267 280 294 312 320 326 329 330 329 328 326 326 325 320 318 319 320 319 316 314 312 310 311 310 307 304 297 290
223 244 259 256 269 285 300 316 320 326 327 328 328 329 328 327 323 322 323 324 322 318 317 317 317 315 310 306 303 297 290 283
224 242 267 256 278 291 313 312 322 326 327 329 330 329 328 326 324 326 329 328 322 321 321 319 315 309 305 303 300 294 289 283
227 249 264 261 282 308 314 319 324 328 329 331 331 330 329 329 332 335 333 332 330 326 319 315 313 310 307 306 299 293 290 284
231 253 254 270 297 311 317 324 325 328 332 332 332 332 334 338 339 338 336 335 334 328 323 319 315 314 310 303 296 292 287 281
231 247 260 284 303 316 325 325 327 332 332 333 336 337 342 344 341 340 338 340 336 328 325 324 322 316 306 301 296 290 282 275
233 248 269 300 315 327 327 328 333 333 336 340 341 345 347 345 344 342 343 341 335 334 328 330 323 321 320 317 309 296 288 277
227 247 294 314 328 330 332 336 335 341 345 344 348 351 349 347 345 347 348 341 339 336 341 338 335 327 333 336 331 322 308 296
220 287 313 327 334 339 341 339 347 350 349 353 355 353 353 350 351 356 348 345 348 350 349 344 344 344 350 352 354 353 348 333
273 317 326 337 345 347 342 356 356 355 357 360 358 358 356 357 1 357 352 357 358 359 350 349 357 14 18 23 24 11 24 12
329 326 342 348 355 346 1 3 1 0 3 4 4 3 3 6 6 1 5 6 5 3 358 359 29 39 24 24 24 50 61 57
332 346 349 1 357 1 10 7 6 7 9 8 11 8 12 14 11 11 12 10 11 7 20 11 46 35 50 51 38 39 55 56
345 354 0 9 3 15 13 11 12 13 16 18 18 16 18 20 19 17 16 18 19 23 28 33 35 41 55 39 59 68 63 63
351 4 8 19 15 20 16 18 19 19 23 27 25 21 25 28 27 20 21 25 30 29 34 38 40 38 57 39 42 99 101 111
6 8 26 25 25 24 23 25 26 28 32 34 31 27 31 34 28 27 27 36 36 37 46 46 50 52 47 46 55 51 70 74
27 27 37 33 32 31 31 31 35 37 39 40 36 33 36 38 34 32 37 45 43 46 47 49 56 56 58 52 60 57 74 71
Height
3093 3093 3093 3093 3086 3087 3086 3084 3082 3078 3074 3069 3065 3060 3055 3049 3044 3039 3033 3028 3023 3017 3013 3008 3002 2998 2994 2990 2987 2985 2982 2979
3090 3091 3092 3090 3085 3086 3084 3082 3080 3076 3071 3066 3061 3056 3050 3045 3039 3034 3026 3020 3015 3010 3004 2999 2994 2990 2987 2984 2980 2977 2976 2972
3088 3089 3089 3087 3085 3084 3082 3079 3076 3073 3068 3062 3056 3051 3045 3040 3033 3027 3021 3015 3008 3002 2996 2992 2988 2983 2980 2975 2971 2968 2966 2964
3086 3086 3086 3084 3084 3083 3080 3077 3073 3070 3065 3059 3053 3048 3042 3036 3030 3024 3017 3009 3002 2995 2990 2985 2980 2975 2970 2966 2962 2959 2956 2957
3085 3083 3084 3083 3081 3080 3077 3075 3071 3066 3061 3056 3050 3043 3036 3031 3025 3018 3010 3003 2996 2989 2982 2977 2972 2967 2962 2957 2953 2950 2947 2946
3082 3082 3083 3080 3079 3079 3077 3072 3069 3064 3058 3052 3046 3039 3033 3026 3019 3012 3005 2997 2989 2982 2976 2971 2966 2959 2953 2948 2944 2940 2938 2935
3082 3081 3080 3079 3078 3078 3074 3070 3066 3061 3055 3048 3042 3035 3029 3022 3014 3005 2997 2990 2983 2978 2971 2965 2957 2950 2944 2938 2933 2929 2926 2924
3079 3081 3080 3078 3078 3076 3072 3069 3064 3058 3052 3045 3039 3032 3025 3016 3008 2999 2991 2984 2978 2972 2965 2957 2948 2941 2934 2927 2921 2917 2913 2911
3080 3080 3079 3078 3077 3074 3071 3067 3062 3056 3049 3043 3036 3029 3021 3012 3004 2996 2987 2980 2974 2966 2956 2949 2940 2931 2923 2915 2909 2903 2899 2896
3080 3080 3079 3078 3076 3074 3070 3065 3059 3054 3048 3041 3034 3026 3018 3010 3002 2992 2985 2979 2970 2960 2950 2941 2931 2922 2912 2902 2894 2888 2884 2883
3080 3081 3079 3078 3076 3073 3069 3063 3058 3052 3046 3039 3031 3024 3016 3008 2999 2991 2985 2975 2965 2955 2944 2935 2926 2913 2902 2892 2884 2878 2875 2873
3081 3081 3079 3078 3075 3072 3067 3062 3057 3051 3044 3037 3030 3023 3016 3006 2998 2991 2982 2972 2963 2951 2941 2929 2918 2908 2898 2889 2880 2874 2870 2867
3082 3081 3079 3078 3075 3071 3066 3062 3056 3049 3043 3037 3030 3023 3015 3006 2998 2990 2981 2971 2961 2951 2939 2926 2916 2908 2901 2890 2881 2875 2871 2866
3083 3081 3080 3078 3075 3070 3067 3062 3056 3050 3044 3037 3031 3024 3015 3007 2999 2990 2981 2971 2961 2951 2939 2926 2917 2913 2905 2895 2885 2878 2872 2867
3084 3083 3081 3079 3076 3071 3068 3062 3057 3051 3045 3039 3033 3024 3016 3008 2999 2991 2983 2973 2964 2953 2941 2927 2925 2916 2907 2896 2888 2881 2879 2875
3086 3085 3083 3081 3076 3074 3069 3064 3058 3052 3047 3041 3034 3026 3018 3010 3002 2995 2986 2978 2968 2956 2943 2934 2927 2921 2912 2903 2895 2893 2888 2884
3087 3087 3085 3082 3078 3076 3071 3066 3061 3055 3049 3043 3036 3029 3021 3013 3007 3000 2991 2984 2974 2962 2949 2940 2932 2923 2918 2911 2903 2897 2894 2892
3090 3089 3087 3084 3081 3079 3074 3069 3064 3058 3052 3046 3040 3033 3024 3018 3011 3005 2997 2989 2980 2970 2958 2948 2940 2933 2929 2921 2912 2904 2906 2903
3093 3091 3089 3087 3085 3081 3077 3073 3067 3061 3056 3051 3044 3037 3029 3024 3018 3012 3002 2996 2988 2978 2969 2959 2951 2944 2941 2936 2931 2922 2919 2915